KD0ISH Weather Reports


time (UTC)temp
C
wind
direction
speed
KPH
gust
KPH
rain 1hr
cm
rain 24hr
cm
rain mn
cm
humidity
%
barometer
mb
20260505071450 20 200 4.8 8.0 0.00 0.00 0.00 74 1005.3
20260505070948 20 217 4.8 8.0 0.00 0.00 0.00 74 1005.5
20260505070445 19 212 3.2 3.2 0.00 0.00 0.00 74 1005.3
20260505065940 19 224 6.4 8.0 0.00 0.00 0.00 74 1005.5
20260505065437 19 221 3.2 3.2 0.00 0.00 0.00 74 1005.9
20260505064934 20 230 6.4 9.7 0.00 0.00 0.00 74 1005.9
20260505064431 19 219 4.8 4.8 0.00 0.00 0.00 74 1005.9
20260505063929 19 214 3.2 4.8 0.00 0.00 0.00 74 1005.8
20260505063425 19 218 3.2 3.2 0.00 0.00 0.00 74 1005.7
20260505062922 19 206 8.0 12.9 0.00 0.00 0.00 74 1005.9
20260505062419 19 212 4.8 8.0 0.00 0.00 0.00 75 1005.8
20260505061916 19 232 4.8 4.8 0.00 0.00 0.00 74 1005.9
20260505061414 19 211 4.8 4.8 0.00 0.00 0.00 74 1005.4
20260505060911 19 221 3.2 3.2 0.00 0.00 0.00 74 1005.9
20260505060408 20 213 4.8 4.8 0.00 0.00 0.00 74 1005.7
20260505055904 20 207 4.8 4.8 0.00 0.00 0.00 73 1005.6
20260505055400 20 215 1.6 3.2 0.00 0.00 0.00 73 1006.0
20260505054857 20 214 3.2 4.8 0.00 0.00 0.00 73 1006.0
20260505054355 20 232 4.8 4.8 0.00 0.00 0.00 72 1005.8
20260505053853 20 206 4.8 4.8 0.00 0.00 0.00 72 1005.9
20260505053350 20 212 4.8 4.8 0.00 0.00 0.00 71 1006.0
20260505052846 20 221 4.8 4.8 0.00 0.00 0.00 71 1006.1
20260505052343 20 213 3.2 4.8 0.00 0.00 0.00 71 1006.0
20260505051840 20 223 4.8 4.8 0.00 0.00 0.00 70 1006.4
20260505051337 20 220 9.7 11.3 0.00 0.00 0.00 70 1006.0
20260505050836 20 213 3.2 3.2 0.00 0.00 0.00 70 1006.3
20260505050334 20 206 3.2 4.8 0.00 0.00 0.00 70 1006.1
20260505041301 21 235 6.4 8.0 0.00 0.00 0.00 68 1006.3
20260505040758 21 211 6.4 8.0 0.00 0.00 0.00 67 1006.3
20260505040256 21 211 8.0 12.9 0.00 0.00 0.00 68 1006.3
20260505035752 21 221 3.2 3.2 0.00 0.00 0.00 68 1006.3
20260505035248 21 217 4.8 8.0 0.00 0.00 0.00 68 1006.2
20260505034746 21 202 4.8 8.0 0.00 0.00 0.00 68 1006.1
20260505034242 21 202 4.8 4.8 0.00 0.00 0.00 68 1006.3
20260505033739 21 200 4.8 8.0 0.00 0.00 0.00 68 1006.4
20260505033236 21 228 3.2 3.2 0.00 0.00 0.00 69 1006.4
20260505032734 21 210 4.8 8.0 0.00 0.00 0.00 69 1006.5
20260505032230 21 206 3.2 3.2 0.00 0.00 0.00 68 1006.3
20260505031728 21 210 4.8 4.8 0.00 0.00 0.00 68 1006.5
20260505031224 21 211 6.4 8.0 0.00 0.00 0.00 68 1006.5
20260505030721 21 213 3.2 3.2 0.00 0.00 0.00 67 1006.4
20260505030217 21 221 4.8 4.8 0.00 0.00 0.00 67 1006.2
20260505025713 21 216 3.2 3.2 0.00 0.00 0.00 66 1006.2
20260505025211 21 206 8.0 11.3 0.00 0.00 0.00 66 1006.4
20260505024709 21 212 4.8 8.0 0.00 0.00 0.00 66 1006.3
20260505024206 22 202 4.8 4.8 0.00 0.00 0.00 66 1006.1
20260505023703 22 218 4.8 8.0 0.00 0.00 0.00 65 1006.2
20260505023200 22 223 9.7 11.3 0.00 0.00 0.00 64 1005.9
20260505022658 22 209 8.0 9.7 0.00 0.00 0.00 64 1005.9
20260505022155 22 195 8.0 9.7 0.00 0.00 0.00 63 1005.6
20260505021651 22 206 8.0 11.3 0.00 0.00 0.00 63 1005.6
20260505021148 22 186 11.3 22.5 0.00 0.00 0.00 63 1005.9
20260505020644 22 206 9.7 12.9 0.00 0.00 0.00 63 1005.8
20260505020140 22 202 9.7 11.3 0.00 0.00 0.00 65 1005.6
20260505015637 22 216 4.8 4.8 0.00 0.00 0.00 65 1005.5
20260505015134 22 208 11.3 14.5 0.00 0.00 0.00 65 1005.8
20260505014631 22 223 8.0 11.3 0.00 0.00 0.00 65 1005.5
20260505014128 22 201 8.0 8.0 0.00 0.00 0.00 64 1005.5
20260505013625 22 209 4.8 9.7 0.00 0.00 0.00 64 1005.5
20260505013122 22 234 8.0 8.0 0.00 0.00 0.00 64 1005.5
20260505012621 22 216 3.2 3.2 0.00 0.00 0.00 64 1005.4
20260505012117 23 199 6.4 9.7 0.00 0.00 0.00 62 1005.2
20260505011612 23 226 6.4 11.3 0.00 0.00 0.00 62 1005.1
20260505011110 23 213 6.4 8.0 0.00 0.00 0.00 62 1005.3
20260505010605 23 209 9.7 12.9 0.00 0.00 0.00 61 1005.2
20260505005558 23 206 4.8 4.8 0.00 0.00 0.00 61 1005.2
20260505005055 23 205 8.0 14.5 0.00 0.00 0.00 60 1005.1
20260505004552 23 202 4.8 4.8 0.00 0.00 0.00 60 1005.1
20260505004049 23 225 6.4 8.0 0.00 0.00 0.00 59 1005.1
20260505003546 23 217 11.3 12.9 0.00 0.00 0.00 59 1005.0
20260505003043 23 217 8.0 9.7 0.00 0.00 0.00 59 1004.9
20260505002538 24 221 4.8 4.8 0.00 0.00 0.00 60 1004.9
20260505002038 24 213 4.8 4.8 0.00 0.00 0.00 60 1004.8
20260505001534 24 217 4.8 4.8 0.00 0.00 0.00 59 1004.7
20260505001031 24 223 4.8 4.8 0.00 0.00 0.00 58 1004.5
20260505000529 24 221 8.0 11.3 0.00 0.00 0.00 58 1004.7
20260505000026 25 198 8.0 9.7 0.00 0.00 0.00 58 1004.5
20260504235523 25 214 4.8 4.8 0.00 0.00 0.00 58 1004.9
20260504235019 25 209 4.8 4.8 0.00 0.00 0.00 57 1004.9
20260504234517 25 223 11.3 16.1 0.00 0.00 0.00 56 1004.9
20260504234014 25 214 9.7 12.9 0.00 0.00 0.00 55 1004.7
20260504233509 26 231 8.0 14.5 0.00 0.00 0.00 55 1004.8
20260504233006 26 248 8.0 9.7 0.00 0.00 0.00 55 1005.0
20260504232503 26 233 8.0 11.3 0.00 0.00 0.00 54 1004.8
20260504232001 26 234 8.0 9.7 0.00 0.00 0.00 54 1004.8
20260504231456 26 216 9.7 11.3 0.00 0.00 0.00 54 1004.8
20260504230953 26 202 11.3 16.1 0.00 0.00 0.00 53 1004.8
20260504230450 26 213 12.9 17.7 0.00 0.00 0.00 53 1004.9
20260504225949 26 233 8.0 11.3 0.00 0.00 0.00 53 1004.7
20260504225445 26 212 4.8 9.7 0.00 0.00 0.00 54 1004.5
20260504224942 26 209 4.8 8.0 0.00 0.00 0.00 54 1004.7
20260504224439 26 224 6.4 8.0 0.00 0.00 0.00 55 1004.9
20260504223936 26 191 9.7 11.3 0.00 0.00 0.00 53 1004.7
20260504223432 26 232 8.0 9.7 0.00 0.00 0.00 53 1004.9
20260504222927 26 224 6.4 9.7 0.00 0.00 0.00 55 1004.9
20260504222425 26 196 6.4 8.0 0.00 0.00 0.00 56 1004.9
20260504221923 26 218 6.4 9.7 0.00 0.00 0.00 54 1004.8
20260504221419 27 218 6.4 9.7 0.00 0.00 0.00 54 1005.1
20260504220917 27 232 16.1 22.5 0.00 0.00 0.00 52 1004.9
20260504220413 27 201 8.0 9.7 0.00 0.00 0.00 53 1005.0
20260504215910 27 228 8.0 9.7 0.00 0.00 0.00 53 1004.8
20260504215407 27 289 9.7 12.9 0.00 0.00 0.00 53 1005.0
20260504214903 27 208 4.8 4.8 0.00 0.00 0.00 52 1004.8
20260504214400 27 216 6.4 8.0 0.00 0.00 0.00 53 1004.8
20260504213857 27 163 8.0 14.5 0.00 0.00 0.00 51 1005.1
20260504213352 27 192 11.3 14.5 0.00 0.00 0.00 52 1005.0
20260504212850 26 209 9.7 12.9 0.00 0.00 0.00 54 1005.2
20260504212346 26 232 6.4 9.7 0.00 0.00 0.00 54 1005.2
20260504211844 26 226 14.5 20.9 0.00 0.00 0.00 54 1005.3
20260504211340 26 218 9.7 11.3 0.00 0.00 0.00 54 1005.4
20260504210838 26 214 8.0 9.7 0.00 0.00 0.00 53 1005.4
20260504210334 26 214 17.7 25.7 0.00 0.00 0.00 52 1005.3
20260504205831 26 230 9.7 16.1 0.00 0.00 0.00 53 1005.5
20260504205329 26 270 9.7 11.3 0.00 0.00 0.00 53 1005.4
20260504204827 27 231 8.0 11.3 0.00 0.00 0.00 52 1005.4
20260504204326 27 212 6.4 8.0 0.00 0.00 0.00 53 1005.4
20260504203824 26 222 11.3 14.5 0.00 0.00 0.00 52 1005.7
20260504203321 27 216 11.3 12.9 0.00 0.00 0.00 51 1005.7
20260504202816 27 226 6.4 9.7 0.00 0.00 0.00 51 1005.7
20260504202314 27 205 16.1 22.5 0.00 0.00 0.00 51 1005.7
20260504201811 27 202 9.7 11.3 0.00 0.00 0.00 51 1005.8
20260504201308 26 220 8.0 9.7 0.00 0.00 0.00 51 1005.8
20260504200805 26 203 9.7 16.1 0.00 0.00 0.00 52 1005.9
20260504200302 27 209 8.0 9.7 0.00 0.00 0.00 53 1005.7
20260504195758 26 210 6.4 11.3 0.00 0.00 0.00 51 1006.1
20260504195254 26 202 9.7 12.9 0.00 0.00 0.00 51 1006.0
20260504194751 26 218 11.3 14.5 0.00 0.00 0.00 51 1006.0
20260504194247 26 205 12.9 16.1 0.00 0.00 0.00 52 1006.1
20260504193743 26 215 8.0 9.7 0.00 0.00 0.00 52 1006.2
20260504193241 26 216 11.3 14.5 0.00 0.00 0.00 52 1006.2
20260504192739 26 217 16.1 22.5 0.00 0.00 0.00 52 1006.4
20260504192237 27 242 9.7 12.9 0.00 0.00 0.00 53 1006.3
20260504191736 27 224 8.0 11.3 0.00 0.00 0.00 53 1006.4
20260504191232 26 214 6.4 11.3 0.00 0.00 0.00 51 1006.2
20260504190727 26 216 9.7 12.9 0.00 0.00 0.00 53 1006.5
20260504190224 26 246 11.3 16.1 0.00 0.00 0.00 52 1006.3
20260504185721 26 237 9.7 14.5 0.00 0.00 0.00 52 1006.4
20260504185218 26 243 12.9 20.9 0.00 0.00 0.00 52 1006.3
20260504184714 25 211 11.3 17.7 0.00 0.00 0.00 53 1006.3
20260504184209 26 197 9.7 11.3 0.00 0.00 0.00 53 1006.3
20260504183706 26 210 8.0 11.3 0.00 0.00 0.00 53 1006.6
20260504183203 26 230 8.0 12.9 0.00 0.00 0.00 53 1006.4
20260504182701 26 263 14.5 27.4 0.00 0.00 0.00 52 1006.5
20260504182158 25 220 11.3 16.1 0.00 0.00 0.00 53 1006.7
20260504181655 26 208 17.7 27.4 0.00 0.00 0.00 52 1006.6
20260504181153 25 255 9.7 14.5 0.00 0.00 0.00 53 1006.6
20260504180652 25 206 9.7 11.3 0.00 0.00 0.00 54 1006.9
20260504180150 26 194 11.3 12.9 0.00 0.00 0.00 53 1006.7
20260504175647 26 215 4.8 8.0 0.00 0.00 0.00 54 1006.9
20260504175143 26 248 9.7 11.3 0.00 0.00 0.00 53 1006.9
20260504174642 25 214 11.3 14.5 0.00 0.00 0.00 53 1007.2
20260504174138 25 205 11.3 12.9 0.00 0.00 0.00 52 1007.1
20260504173635 25 221 4.8 4.8 0.00 0.00 0.00 55 1007.2
20260504173132 25 207 11.3 17.7 0.00 0.00 0.00 54 1007.0
20260504172629 25 207 6.4 8.0 0.00 0.00 0.00 56 1007.2
20260504172125 25 200 12.9 14.5 0.00 0.00 0.00 54 1007.0
20260504171622 25 211 12.9 17.7 0.00 0.00 0.00 55 1007.3
20260504171119 25 279 12.9 16.1 0.00 0.00 0.00 55 1007.1
20260504170615 25 231 14.5 17.7 0.00 0.00 0.00 53 1007.1
20260504170113 25 240 11.3 17.7 0.00 0.00 0.00 55 1007.0
20260504150958 21 243 17.7 24.1 0.00 0.00 0.00 57 1007.3
20260504150455 21 198 17.7 24.1 0.00 0.00 0.00 57 1007.3
20260504140922 20 230 9.7 12.9 0.00 0.00 0.00 59 1007.7
20260504140418 20 247 11.3 16.1 0.00 0.00 0.00 59 1007.6
20260504130343 18 205 11.3 16.1 0.00 0.00 0.00 63 1008.2
20260504120306 17 207 11.3 16.1 0.00 0.00 0.00 65 1008.6
20260504110230 17 189 8.0 9.7 0.00 0.00 0.00 62 1008.5
20260504100154 17 228 8.0 9.7 0.00 0.00 0.00 62 1009.0
20260504090116 18 220 8.0 12.9 0.00 0.00 0.00 61 1009.1
20260504081547 18 233 8.0 9.7 0.00 0.00 0.00 61 1009.2
20260504081042 18 240 6.4 9.7 0.00 0.00 0.00 62 1009.2
20260504080540 18 260 6.4 9.7 0.00 0.00 0.00 62 1009.5